Regional Weather Roundup
Issued by NWS

Home | Current Version | Previous Version | Text Only | Print | Product List | Glossary Off
Versions: 1 2 3 4 5 6 7 8 9 10 11 12 13 14 15 16 17 18 19 20 21 22 23 24 25 26 27 28 29 30 31 32 33 34 35 36 37 38 39 40 41 42 43 44 45 46 47 48 49 50

086
ASUS43 KLOT 060712
RWRIL

ILLINOIS REGIONAL WEATHER ROUNDUP
NATIONAL WEATHER SERVICE CHICAGO/ROMEOVILLE IL
100 AM CST TUE DEC 06 2016

NOTE: "FAIR" INDICATES FEW OR NO CLOUDS BELOW 12,000 FEET WITH NO
SIGNIFICANT WEATHER AND/OR OBSTRUCTIONS TO VISIBILITY.

* THESE STATIONS ARE NOT UNDER NWS QUALITY CONTROL. THEY ALSO MAY NOT
  REPORT WEATHER SUCH AS PRECIPITATION OR FOG.

ILZ001-002-007-009-015-016-024-060800-
NORTHWEST ILLINOIS

CITY           SKY/WX    TMP DP  RH WIND       PRES   REMARKS
MOLINE         CLOUDY    35  32  88 SE10      29.83F WCI  27
STERLING*      CLOUDY    32  32 100 E10       29.86F FOG     WCI  24
SAVANNA*       CLOUDY    32  32 100 SE8       29.86F FOG     WCI  25
$$

ILZ003-004-008-010-011-017-018-060800-
NORTH CENTRAL ILLINOIS

CITY           SKY/WX    TMP DP  RH WIND       PRES   REMARKS
ROCKFORD       FOG       32  31  96 SE7       29.90F VSB 3/4 WCI  26
FREEPORT*      FOG       31  31 100 SE10      29.88F VSB 1   WCI  22
ROCHELLE*      FOG       32  32 100 SE13      29.87F VSB 1/2 WCI  22
DE KALB*       FOG       32  32  99 SE6       29.88F VSB 1/2 WCI  27
$$

ILZ005-006-012>014-019>023-060800-
NORTHEAST ILLINOIS

CITY           SKY/WX    TMP DP  RH WIND       PRES   REMARKS
CHICAGO-OHARE  CLOUDY    35  33  92 SE7       29.89F FOG     WCI  29
CHICAGO-MIDWAY PTCLDY    33  30  88 SE3       29.90F FOG
AURORA         CLOUDY    34  32  92 E8        29.88F FOG     WCI  27
LANSING*       PTCLDY    29  29 100 E5        29.88F FOG     WCI  24
JOLIET*        PTCLDY    31  30  96 E6        29.88F FOG     WCI  26
WAUKEGAN       CLOUDY    36  34  92 S12       29.89F WCI  28
DUPAGE AIRPORT FOG       33  31  92 E6        29.88F VSB 1   WCI  28
KANKAKEE*      PTCLDY    29  28  96 CALM      29.87F FOG
WHEELING       CLOUDY    35  32  88 SE6       29.91F WCI  30
MORRIS*        CLOUDY    32  30  94 E7        29.86F FOG     WCI  25
ROMEOVILLE*    PTCLDY    30  30 100 E6        29.88F FOG     WCI  24
NORTHERLY ISL    N/A     36  33  89 SE10        N/A  WCI  28
$$

LMZ740>746-060800-
SOUTHERN LAKE MICHIGAN

STATION/POSITION SKY/WX   TEMP    WIND        PRES    VSBY  WAVE
                          AIR SEA DIR/SP/G                  HT/PER
                          (F)     (DEG/KT/KT) (MB)    (MI)  (FT/S)
HARRISON CRIB              38     140/ 14/ 17   N/A
BURNHAM HARBOR             36     150/  7/ 14   N/A
CALUMET HARBOR             36     110/  9/ 13 1011.9F
BURNS HARBOR               34     130/ 12/ 20 1012.9F
$$

ILZ025>027-034>036-040-047-049-050-058-095>099-060800-
WEST-CENTRAL ILLINOIS

CITY           SKY/WX    TMP DP  RH WIND       PRES   REMARKS
QUINCY         CLOUDY    35  34  96 S3        29.80S FOG
GALESBURG*     CLOUDY    33  33  99 E7        29.82S FOG     WCI  27
MACOMB*        CLOUDY    35  35  99 SE7       29.83F FOG     WCI  29
JACKSONVILLE*  CLOUDY    32  32  99 CALM      29.80S FOG
PITTSFIELD*    CLOUDY    36  34  95 CALM      29.80S
$$

ILZ028>032-037-038-041>044-048-051>054-059>061-060800-
CENTRAL ILLINOIS

CITY           SKY/WX    TMP DP  RH WIND       PRES   REMARKS
PONTIAC        MOCLDY    31  31 100 E9        29.85F FOG     WCI  23
BLOOMINGTON    CLOUDY    30  29  96 NE8       29.82F FOG     WCI  22
DECATUR        CLOUDY    33  32  96 E6        29.81F WCI  28
PEORIA         PTCLDY    33  33 100 E7        29.83F FOG     WCI  27
LACON*         FOG       32  32 100 E6        29.85F VSB 1   WCI  26
LINCOLN*       CLOUDY    33  33  99 E3        29.81F
SPRINGFIELD    CLOUDY    33  31  92 E5        29.81F FOG     WCI  29
TAYLORVILLE    CLOUDY    35  33  94 CALM      29.80S
$$

ILZ033-039-045-046-055>057-062-063-060800-
EAST-CENTRAL ILLINOIS

CITY           SKY/WX    TMP DP  RH WIND       PRES   REMARKS
CHAMPAIGN      PTCLDY    34  31  88 E10       29.81F WCI  26
RANTOUL*       PTCLDY    34  33  96 NE10      29.81F FOG     WCI  26
MATTOON        CLOUDY    36  32  85 E8        29.79F WCI  30
PARIS*         CLOUDY    35  33  93 E7        29.82F WCI  29
$$

ILZ079-100>102-060800-
SOUTHWEST ILLINOIS

CITY           SKY/WX    TMP DP  RH WIND       PRES   REMARKS
ALTON          CLOUDY    36  34  93 E7        29.79F WCI  30
BELLEVILLE     CLOUDY    38  38  99 E3        29.77F
CAHOKIA*       CLOUDY    39  35  86 E3        29.78F
SPARTA*        CLOUDY    38  36  92 CALM      29.79F
$$

ILZ064>066-069>071-074>076-080>082-084>086-088>090-092>094-060800-
SOUTH-CENTRAL ILLINOIS

CITY           SKY/WX    TMP DP  RH WIND       PRES   REMARKS
CARBONDALE     LGT RAIN  40  38  93 N6        29.76F
CAIRO*         HVY RAIN  40  40  99 N6        29.72F
EFFINGHAM*     CLOUDY    38  37  94 E6        29.80F WCI  33
CENTRALIA*     CLOUDY    39  37  92 CALM      29.77F
SALEM*         CLOUDY    39  36  86 E3        29.77F
METROPOLIS*    RAIN      40  40  97 NE5       29.73F
$$

ILZ067-068-072-073-078-083-087-091-060800-
SOUTHEAST ILLINOIS

CITY           SKY/WX    TMP DP  RH WIND       PRES   REMARKS
LAWRENCEVILLE  CLOUDY    39  35  86 NE8       29.80F WCI  33
FLORA*         CLOUDY    39  36  89 NE5       29.79F
FAIRFIELD*     CLOUDY    39  37  89 NE3       29.77F
HARRISBURG*    RAIN      41  40  97 NE3       29.75F
ROBINSON*      CLOUDY    36  34  92 N6        29.81F WCI  32
CARMI*         RAIN      40  38  93 NE6       29.76F
$$

ABBREVIATIONS USED IN REMARKS
   TC - TEMPERATURE IN CELSIUS
  WCI - WIND CHILL INDEX
   HX - HEAT INDEX
  VSB - VISIBILITY
$$





USA.gov is the U.S. government's official web portal to all federal, state and local government web resources and services.